Temp
71 74 79 79 79 79 79 79 79 79 78 79 79 79 78 78 78 77 77 77 77 78 78 79 79 78 77 78 77 76 76 75 75 74 74 74 76 77 76 75 75 74 76
73 76 78 79 79 79 79 78 78 78 78 78 78 78 78 78 78 77 77 77 77 78 77 77 77 77 78 78 77 76 76 75 74 73 72 72 73 76 76 75 75 74 76
74 76 77 78 78 78 78 78 77 77 78 78 78 78 78 78 78 77 77 77 77 77 77 77 77 77 77 76 76 76 76 75 74 73 73 66 67 76 76 75 76 76 76
75 76 76 78 78 78 78 77 77 77 78 78 78 78 78 78 78 77 77 76 76 76 76 76 75 75 75 75 75 75 75 74 74 73 67 68 71 76 76 76 76 76 76
75 76 76 77 78 78 77 77 77 78 78 77 78 77 78 78 78 77 76 76 75 75 75 75 75 75 75 75 75 75 75 74 73 70 67 67 66 75 76 76 74 75 75
73 74 76 77 77 77 77 77 77 78 78 77 77 78 78 78 77 76 75 75 75 74 75 75 74 74 74 74 75 75 74 73 71 69 67 71 71 76 77 77 75 75 75
72 73 75 77 77 77 77 77 77 77 77 78 78 78 78 78 77 76 75 74 74 74 75 75 75 74 74 74 74 74 73 71 66 65 68 70 70 77 77 76 76 76 76
73 74 75 76 76 76 76 76 76 77 77 77 77 78 78 78 77 76 75 74 74 74 75 75 75 74 74 74 73 73 72 70 67 64 65 65 74 77 77 76 76 75 75
74 74 74 74 74 75 75 75 76 76 76 76 76 76 76 75 76 76 75 74 74 74 74 74 74 74 74 73 73 72 71 69 62 64 67 65 74 76 76 75 75 75 75
73 73 73 73 73 72 72 73 74 74 75 75 74 73 72 72 73 75 73 74 74 74 73 74 74 73 73 73 73 72 69 67 60 62 63 65 75 76 75 74 74 74 73
72 72 73 72 70 69 69 71 72 73 72 72 71 70 68 68 69 70 69 71 72 73 73 73 73 72 71 70 70 69 66 60 58 60 61 71 74 75 73 73 73 73 72
70 72 72 72 69 69 73 68 67 69 67 67 67 66 65 66 66 69 67 69 71 72 72 73 73 72 68 62 62 65 60 58 58 59 62 72 73 73 72 72 72 71 71
69 70 72 71 70 70 71 67 66 65 64 65 65 65 64 65 64 64 64 65 65 66 64 65 63 62 61 60 59 58 57 56 55 58 65 71 73 72 71 70 70 70 70
69 70 71 71 70 70 71 69 68 67 65 63 64 64 62 61 62 62 62 62 62 61 60 60 59 59 59 59 57 56 55 54 53 55 62 68 71 71 70 69 69 69 69
70 71 71 71 71 71 69 69 69 68 67 66 65 65 64 62 63 62 61 61 61 61 59 58 58 58 57 57 56 56 54 52 52 54 55 65 67 68 68 68 68 68 68
70 72 72 72 72 72 71 70 69 69 69 68 68 67 66 65 64 62 61 61 59 59 58 57 57 56 54 54 55 54 52 51 51 52 53 57 65 66 67 67 67 66 67
67 73 72 73 74 72 71 70 70 71 71 69 69 69 68 67 63 62 60 59 58 58 58 56 55 53 53 54 51 53 53 50 50 50 51 52 56 63 65 65 65 65 66
67 69 74 76 74 73 72 72 72 73 72 70 71 71 71 68 64 61 60 58 57 57 56 54 53 50 49 49 49 50 51 51 50 50 51 50 51 53 60 63 64 64 64
67 67 68 73 72 74 73 73 70 71 70 71 72 72 72 66 64 62 60 57 57 55 54 55 50 50 48 48 51 49 49 50 50 54 49 50 50 50 49 61 61 61 62
71 66 68 72 74 73 71 69 66 66 66 69 70 73 70 65 66 64 58 59 58 54 52 51 49 47 47 46 54 52 48 48 49 48 49 52 49 50 49 49 48 51 60
63 63 64 67 73 72 68 65 65 65 65 64 68 67 66 66 66 64 60 60 56 54 52 51 48 48 46 44 46 46 47 47 48 48 48 48 50 49 48 47 46 45 47
64 63 63 64 70 73 72 70 66 67 62 65 60 62 65 65 64 64 62 60 56 53 54 50 49 46 45 43 44 42 43 46 47 47 46 48 46 47 47 48 46 46 44
59 62 64 64 64 71 72 60 56 56 55 54 54 55 58 62 64 64 63 60 58 57 54 51 48 48 44 44 43 45 40 41 39 43 44 44 44 43 43 44 45 45 45
60 60 62 63 64 65 64 63 63 62 58 55 58 55 55 58 61 63 61 60 57 55 53 47 48 46 45 43 43 46 42 42 39 40 42 42 42 44 41 41 42 43 42
58 57 58 59 61 63 63 65 63 65 63 51 51 52 53 54 57 59 60 57 55 50 50 51 47 47 44 43 42 41 41 39 38 37 36 38 40 41 41 41 40 39 41
55 56 56 58 59 59 61 63 64 63 51 50 51 50 51 51 52 55 57 56 54 51 51 47 48 48 44 43 42 42 41 40 38 36 34 34 34 38 39 40 39 38 38
MSLP
1012.40 1012.29 1012.51 1012.78 1013.06 1013.22 1013.40 1013.58 1013.78 1014.02 1014.24 1014.41 1014.66 1014.99 1015.27 1015.46 1015.66 1015.78 1015.87 1015.92 1015.92 1015.86 1015.75 1015.61 1015.68 1015.80 1016.00 1016.10 1016.36 1016.44 1016.60 1016.70 1016.75 1016.86 1016.89 1016.87 1016.81 1016.87 1016.96 1017.04 1017.00 1016.90 1016.92
1011.86 1012.16 1012.47 1012.84 1013.03 1013.22 1013.51 1013.72 1013.95 1014.19 1014.43 1014.62 1014.82 1015.05 1015.30 1015.56 1015.77 1015.94 1016.03 1016.04 1016.01 1016.05 1016.05 1015.96 1015.96 1015.98 1016.14 1016.32 1016.61 1016.63 1016.73 1016.90 1017.00 1017.06 1017.09 1017.15 1017.05 1017.02 1017.09 1017.10 1017.19 1017.05 1017.07
1011.80 1012.15 1012.57 1012.91 1013.14 1013.29 1013.57 1013.76 1014.00 1014.21 1014.45 1014.72 1014.96 1015.19 1015.44 1015.63 1015.88 1016.07 1016.14 1016.27 1016.28 1016.30 1016.31 1016.35 1016.39 1016.46 1016.55 1016.72 1016.74 1016.74 1016.83 1016.98 1017.18 1017.29 1017.29 1017.37 1017.28 1017.20 1017.22 1017.20 1017.16 1017.07 1017.05
1011.60 1012.15 1012.64 1012.96 1013.22 1013.44 1013.70 1013.89 1014.05 1014.29 1014.46 1014.64 1014.92 1015.22 1015.51 1015.78 1016.00 1016.19 1016.30 1016.38 1016.54 1016.62 1016.62 1016.65 1016.67 1016.78 1016.86 1016.89 1016.95 1016.88 1017.00 1017.06 1017.17 1017.24 1017.43 1017.50 1017.31 1017.19 1017.23 1017.30 1017.22 1017.12 1017.07
1011.62 1012.13 1012.65 1012.96 1013.27 1013.53 1013.82 1014.05 1014.17 1014.36 1014.61 1014.82 1014.95 1015.32 1015.55 1015.84 1016.08 1016.34 1016.49 1016.63 1016.75 1016.80 1016.87 1016.95 1017.05 1017.07 1017.11 1017.11 1017.10 1017.07 1017.13 1017.20 1017.33 1017.39 1017.41 1017.50 1017.49 1017.27 1017.24 1017.31 1017.28 1017.14 1017.19
1011.86 1012.21 1012.72 1013.10 1013.43 1013.68 1013.92 1014.17 1014.25 1014.47 1014.70 1015.01 1015.27 1015.52 1015.76 1015.97 1016.19 1016.45 1016.68 1016.86 1016.97 1017.06 1017.10 1017.08 1017.16 1017.19 1017.23 1017.25 1017.26 1017.24 1017.31 1017.36 1017.45 1017.40 1017.41 1017.39 1017.35 1017.22 1017.22 1017.19 1017.16 1016.98 1017.00
1012.01 1012.27 1012.74 1013.08 1013.46 1013.76 1014.04 1014.24 1014.34 1014.59 1014.89 1015.13 1015.45 1015.64 1015.84 1016.11 1016.29 1016.57 1016.80 1016.98 1017.12 1017.23 1017.28 1017.24 1017.23 1017.27 1017.26 1017.27 1017.28 1017.33 1017.43 1017.56 1017.61 1017.38 1017.39 1017.56 1017.46 1017.33 1017.30 1017.48 1017.34 1017.15 1016.97
1011.66 1012.24 1012.74 1013.20 1013.56 1013.79 1014.08 1014.27 1014.30 1014.47 1014.81 1015.15 1015.39 1015.67 1015.90 1016.12 1016.34 1016.57 1016.89 1017.07 1017.17 1017.21 1017.32 1017.36 1017.35 1017.38 1017.35 1017.31 1017.36 1017.47 1017.45 1017.55 1017.69 1017.79 1017.85 1017.74 1017.57 1017.49 1017.48 1017.57 1017.47 1017.45 1017.35
1011.70 1012.25 1012.82 1013.21 1013.59 1013.84 1014.05 1014.33 1014.48 1014.59 1014.86 1015.13 1015.40 1015.65 1015.93 1016.09 1016.32 1016.46 1016.82 1017.07 1017.19 1017.32 1017.43 1017.43 1017.49 1017.51 1017.45 1017.49 1017.56 1017.51 1017.66 1017.62 1017.83 1018.00 1018.07 1018.03 1017.71 1017.53 1017.66 1017.71 1017.67 1017.62 1017.80
1012.23 1012.42 1012.73 1013.17 1013.60 1013.93 1014.17 1014.44 1014.63 1014.78 1015.01 1015.23 1015.48 1015.78 1016.01 1016.06 1016.10 1016.40 1016.76 1017.06 1017.23 1017.33 1017.49 1017.49 1017.55 1017.68 1017.70 1017.78 1017.83 1017.72 1017.87 1017.91 1018.24 1018.34 1018.23 1017.98 1017.79 1017.71 1017.89 1017.88 1018.04 1017.94 1018.22
1012.42 1012.55 1012.74 1013.12 1013.61 1013.90 1014.24 1014.49 1014.69 1014.85 1015.09 1015.35 1015.64 1015.85 1016.01 1016.16 1016.21 1016.46 1016.75 1016.96 1017.14 1017.34 1017.52 1017.52 1017.64 1017.74 1017.83 1017.82 1018.00 1018.09 1018.04 1018.32 1018.39 1018.67 1018.46 1017.94 1017.93 1018.00 1018.34 1018.27 1018.38 1018.47 1018.74
1012.32 1012.57 1012.74 1013.01 1013.43 1013.78 1014.08 1014.48 1014.74 1014.88 1015.07 1015.29 1015.56 1015.84 1016.05 1016.24 1016.41 1016.55 1016.80 1016.95 1017.15 1017.31 1017.48 1017.63 1017.74 1017.88 1018.11 1018.13 1018.30 1018.38 1018.57 1018.70 1018.67 1018.78 1018.48 1018.03 1018.16 1018.29 1018.68 1018.78 1018.73 1018.86 1019.04
1011.72 1012.23 1012.53 1012.81 1013.07 1013.51 1013.86 1014.41 1014.76 1014.92 1015.14 1015.31 1015.52 1015.78 1016.08 1016.31 1016.57 1016.71 1016.88 1017.04 1017.21 1017.46 1017.74 1017.84 1018.09 1018.25 1018.44 1018.58 1018.70 1018.79 1018.87 1018.96 1018.95 1018.97 1018.54 1018.38 1018.39 1018.60 1019.09 1019.23 1019.29 1019.14 1019.43
1011.34 1011.58 1011.99 1012.39 1012.74 1013.06 1013.39 1013.97 1014.38 1014.75 1015.04 1015.34 1015.46 1015.70 1016.02 1016.36 1016.56 1016.81 1016.98 1017.10 1017.41 1017.59 1017.96 1018.09 1018.36 1018.61 1018.69 1018.87 1018.87 1019.14 1019.19 1019.31 1019.31 1019.36 1019.03 1018.84 1018.83 1018.99 1019.51 1019.55 1019.70 1019.60 1019.71
1010.82 1011.08 1011.34 1011.84 1012.12 1012.57 1013.09 1013.54 1013.99 1014.29 1014.66 1014.87 1015.17 1015.46 1015.70 1016.08 1016.41 1016.72 1016.98 1017.09 1017.35 1017.49 1017.96 1018.25 1018.44 1018.68 1018.89 1019.02 1019.11 1019.28 1019.45 1019.66 1019.75 1019.71 1019.58 1019.38 1019.44 1019.60 1019.81 1019.92 1019.95 1020.01 1020.00
1010.34 1010.40 1010.71 1011.17 1011.41 1011.73 1012.23 1012.86 1013.30 1013.59 1013.88 1014.25 1014.53 1014.81 1015.03 1015.34 1015.77 1016.39 1016.83 1017.08 1017.40 1017.55 1017.95 1018.30 1018.56 1018.86 1019.08 1019.12 1019.31 1019.45 1019.68 1019.90 1020.04 1020.13 1020.01 1019.84 1019.86 1020.02 1020.12 1020.28 1020.34 1020.38 1020.30
1009.77 1009.74 1010.26 1010.33 1010.81 1011.16 1011.52 1011.97 1012.41 1012.79 1013.33 1013.60 1014.05 1014.33 1014.46 1014.92 1015.54 1015.96 1016.60 1017.10 1017.41 1017.68 1018.00 1018.35 1018.72 1019.02 1019.28 1019.35 1019.58 1019.56 1019.76 1019.99 1020.26 1020.39 1020.39 1020.36 1020.26 1020.22 1020.32 1020.45 1020.52 1020.57 1020.55
1009.08 1009.32 1009.44 1009.88 1010.09 1010.48 1010.89 1011.37 1011.68 1011.93 1012.35 1012.92 1013.35 1013.80 1014.06 1014.45 1015.06 1015.68 1016.35 1016.88 1017.22 1017.66 1017.97 1018.45 1018.93 1019.34 1019.53 1019.61 1019.73 1019.77 1019.83 1019.97 1020.25 1020.44 1020.49 1020.57 1020.63 1020.64 1020.57 1020.62 1020.78 1020.72 1020.62
1008.18 1008.57 1008.89 1009.20 1009.77 1009.76 1010.20 1010.75 1011.04 1011.25 1011.55 1012.07 1012.57 1013.00 1013.42 1014.20 1014.70 1015.41 1016.15 1016.85 1017.22 1017.65 1018.06 1018.55 1019.23 1019.40 1019.84 1019.87 1019.87 1019.85 1019.95 1020.10 1020.19 1020.32 1020.60 1020.69 1020.79 1020.91 1020.99 1020.79 1020.93 1020.92 1020.76
1007.62 1007.82 1008.07 1008.27 1008.91 1009.45 1009.96 1010.34 1010.94 1011.14 1011.24 1011.53 1012.02 1012.31 1012.98 1013.79 1014.31 1015.08 1016.07 1016.73 1017.11 1017.65 1018.24 1018.72 1019.16 1019.64 1019.95 1020.03 1019.93 1020.10 1020.24 1020.28 1020.30 1020.44 1020.59 1020.62 1020.85 1020.91 1021.08 1021.06 1021.14 1021.14 1020.90
1007.55 1007.58 1007.56 1007.68 1007.96 1008.79 1009.64 1010.30 1010.73 1011.03 1011.17 1011.38 1011.70 1012.05 1012.76 1013.09 1013.95 1014.70 1015.50 1016.30 1016.79 1017.27 1018.10 1018.66 1019.20 1019.70 1020.22 1020.21 1020.41 1020.60 1020.59 1020.53 1020.56 1020.60 1020.58 1020.64 1020.73 1020.91 1021.10 1021.30 1021.38 1021.36 1021.26
1007.00 1007.02 1007.15 1007.35 1007.28 1007.57 1008.23 1008.85 1009.55 1009.90 1010.74 1010.91 1011.33 1011.76 1012.34 1012.70 1013.61 1014.36 1014.89 1015.80 1016.32 1017.19 1018.08 1018.59 1018.79 1019.77 1020.22 1020.17 1020.55 1021.10 1021.23 1021.09 1020.79 1020.81 1020.85 1020.89 1020.99 1021.06 1021.26 1021.34 1021.43 1021.36 1021.32
1006.97 1006.79 1006.73 1006.87 1007.11 1006.84 1007.45 1008.60 1009.54 1010.47 1011.10 1011.59 1011.89 1012.08 1012.23 1012.71 1013.04 1013.86 1014.53 1015.21 1016.17 1016.56 1017.54 1018.04 1018.43 1019.00 1020.00 1020.36 1020.28 1020.60 1021.42 1021.50 1021.54 1021.24 1021.22 1021.22 1021.28 1021.42 1021.54 1021.53 1021.46 1021.42 1021.30
1006.19 1006.16 1006.32 1006.39 1006.60 1006.73 1006.77 1007.74 1008.21 1008.97 1010.18 1010.46 1010.69 1011.52 1012.26 1012.80 1012.86 1013.13 1014.10 1014.75 1015.72 1016.43 1017.07 1017.39 1017.97 1018.58 1019.16 1020.21 1020.57 1020.52 1020.67 1021.01 1021.68 1021.94 1021.69 1021.63 1021.55 1021.51 1021.56 1021.57 1021.54 1021.43 1021.33
1006.05 1006.07 1006.11 1006.21 1006.27 1006.11 1006.70 1006.63 1007.58 1008.07 1008.77 1009.90 1010.83 1011.50 1012.03 1012.64 1013.12 1013.00 1013.66 1014.66 1015.29 1016.28 1017.10 1017.44 1018.06 1018.47 1018.95 1019.74 1020.24 1020.67 1020.97 1021.20 1021.38 1021.86 1022.21 1021.95 1021.72 1021.46 1021.41 1021.48 1021.43 1021.53 1021.43
1006.05 1005.92 1005.96 1006.02 1005.94 1006.11 1006.18 1006.46 1006.68 1007.53 1008.66 1009.86 1010.73 1011.50 1012.13 1012.65 1013.08 1013.32 1013.49 1014.34 1015.08 1016.15 1016.87 1017.45 1018.07 1018.27 1018.86 1019.38 1019.92 1020.30 1020.74 1021.29 1021.69 1021.99 1022.48 1022.56 1022.43 1021.86 1021.54 1021.37 1021.39 1021.60 1021.52
Wind_Speed
10 10 17 18 18 18 17 16 16 15 15 17 17 15 15 14 13 12 11 10 10 10 9 10 9 8 12 14 11 11 9 8 8 8 9 8 9 8 8 6 7 5 6
13 12 18 17 18 18 17 16 15 14 14 15 16 15 15 14 12 12 11 10 10 10 10 11 13 15 15 13 10 9 8 6 7 6 6 3 4 6 6 5 4 4 5
14 12 14 17 16 17 17 17 16 15 15 14 15 15 15 14 12 12 11 11 10 11 10 10 11 11 11 10 8 7 7 6 6 4 3 3 1 4 4 4 3 1 5
15 12 12 17 17 18 17 16 15 15 15 15 15 16 16 13 13 13 12 12 11 10 10 9 9 9 9 8 7 6 5 5 4 5 3 4 3 4 4 3 1 4 3
14 13 12 18 17 17 16 15 16 16 15 13 15 18 16 15 14 13 12 12 11 11 10 9 9 8 8 7 6 6 4 4 6 5 2 4 3 3 4 2 1 2 2
12 11 15 17 16 16 15 14 16 17 17 16 16 15 15 15 14 13 12 11 10 10 9 9 8 8 7 6 5 4 4 7 6 5 4 7 4 3 4 5 3 2 4
12 10 14 18 17 17 16 14 16 16 17 16 15 15 15 14 14 13 12 11 10 8 8 8 8 8 7 6 5 4 5 7 5 4 3 3 2 6 6 7 8 7 6
15 13 13 17 17 17 16 15 16 18 17 16 14 14 13 12 12 13 12 10 9 8 7 7 8 7 6 5 3 4 6 8 5 6 5 4 4 5 6 6 6 11 13
14 13 12 12 13 16 16 15 15 17 16 16 15 13 11 10 10 13 13 11 9 8 7 7 7 6 5 4 4 5 7 5 5 4 3 2 3 5 6 6 9 11 12
11 13 12 10 10 9 8 13 13 14 14 14 13 11 9 8 12 14 12 10 10 8 7 6 6 4 4 4 6 7 10 12 6 4 2 1 3 7 9 10 11 12 12
9 11 12 11 8 7 6 8 11 11 11 11 10 10 6 3 5 9 8 10 9 8 7 6 5 5 3 4 6 8 9 3 5 2 1 2 11 10 12 12 11 12 12
13 14 13 13 10 9 7 6 5 6 5 5 6 6 4 5 5 5 6 10 9 8 6 5 5 5 4 3 3 6 3 4 3 2 1 6 11 12 12 11 10 12 11
14 10 14 13 11 11 8 5 3 3 3 4 7 6 5 4 3 3 3 3 3 5 1 3 3 3 4 3 3 4 4 4 3 2 4 11 10 12 11 10 10 11 10
13 14 14 14 13 12 7 7 7 5 4 4 5 6 4 3 4 4 3 4 4 3 3 3 2 3 4 4 4 5 5 4 3 2 4 10 11 11 9 10 9 9 9
13 14 16 15 14 12 10 8 8 8 6 6 5 6 6 5 6 5 4 4 4 4 3 4 4 4 4 4 4 5 4 5 4 2 2 11 11 11 9 9 9 9 8
9 12 15 17 16 15 13 13 9 8 9 8 7 7 9 7 7 6 5 4 4 4 4 4 4 4 3 3 4 4 4 5 4 4 3 4 11 10 9 8 8 7 8
7 11 13 18 18 16 16 14 10 10 9 8 8 9 11 9 7 8 5 5 4 4 6 5 4 4 4 3 4 3 3 5 5 4 3 3 5 9 8 7 7 7 8
7 9 12 13 17 18 15 13 10 11 10 8 8 8 11 10 10 7 6 5 5 5 5 4 3 4 3 3 1 2 2 3 5 5 4 3 3 3 5 6 6 7 8
9 9 9 12 15 18 16 12 10 12 9 8 8 8 11 10 9 8 6 5 6 5 4 4 2 3 2 2 0 1 1 2 5 4 5 4 4 3 2 5 6 6 7
11 9 9 11 14 16 10 9 5 6 6 8 8 9 11 9 12 10 6 7 6 5 5 4 4 3 2 1 2 3 2 1 3 4 5 3 4 4 3 3 2 2 4
8 8 8 10 14 11 9 8 7 9 7 5 7 8 11 12 12 11 8 8 6 7 6 6 4 4 3 1 3 3 3 3 1 1 1 2 3 3 3 2 1 1 2
9 8 8 9 13 13 11 10 4 8 3 6 4 8 10 14 12 11 12 10 8 7 7 5 5 3 2 2 3 2 1 3 3 3 2 2 2 3 3 3 2 3 2
8 9 8 9 9 12 14 6 4 5 4 2 1 3 6 9 14 12 11 10 8 8 8 6 6 6 4 1 3 4 2 4 1 2 2 3 3 3 2 4 5 5 3
9 8 8 8 8 8 10 11 12 10 8 5 7 5 6 7 11 14 12 11 9 5 7 6 5 4 5 4 1 3 4 4 3 1 2 1 2 1 2 2 3 5 5
4 5 6 7 6 8 11 14 12 11 7 4 5 10 8 6 7 10 12 11 10 5 5 6 5 6 3 4 3 2 2 3 3 3 3 3 2 2 2 2 4 3 5
2 2 2 4 7 6 10 13 17 13 10 9 8 8 7 4 4 8 12 10 10 8 8 6 5 6 5 5 3 3 3 3 2 2 1 2 3 4 3 4 2 2 2
Wind_Direction
161 156 150 151 145 138 135 132 130 130 133 132 129 128 122 117 111 109 107 107 112 104 91 94 118 144 137 123 118 105 95 82 74 74 73 63 63 72 77 76 44 41 66
146 152 151 151 147 140 136 133 130 132 134 136 134 134 129 122 114 107 103 107 116 115 105 90 94 103 111 107 107 103 95 82 84 87 89 76 29 78 84 83 84 71 97
144 151 150 151 146 142 140 138 138 139 142 143 141 139 134 125 117 109 107 108 116 121 114 103 97 97 104 108 106 92 85 81 78 71 89 157 154 81 84 61 105 137 140
145 149 151 152 148 145 144 143 142 146 150 153 158 146 139 131 125 116 115 115 115 115 112 106 105 106 105 103 95 91 90 72 52 41 35 163 202 94 82 73 11 6 50
144 150 156 156 153 150 147 145 144 146 148 156 169 144 139 138 132 125 122 119 119 118 116 112 110 107 104 105 100 84 86 35 18 16 118 169 196 121 88 88 302 340 315
146 149 158 158 156 152 150 150 147 146 147 139 139 144 146 145 142 135 133 133 132 129 128 126 124 119 115 113 110 85 51 37 26 344 156 189 168 124 51 34 355 286 259
150 152 158 161 159 156 155 156 153 153 149 146 150 153 154 155 151 148 145 145 144 141 135 136 133 130 125 117 102 71 36 34 26 1 127 46 58 58 39 40 25 26 27
153 159 161 163 165 161 162 163 161 155 154 153 152 155 157 162 165 162 157 155 154 152 148 143 138 134 127 115 87 43 30 44 46 58 57 51 55 57 45 41 41 58 52
154 155 163 166 168 168 166 167 168 161 157 159 163 158 164 174 184 174 166 164 164 158 156 152 150 142 132 122 79 61 39 53 82 78 57 35 43 74 68 70 72 65 55
157 161 164 163 167 167 166 169 171 171 165 162 159 153 165 186 189 167 162 168 166 162 159 151 147 140 115 84 60 57 73 95 79 74 49 19 60 87 88 81 72 70 59
165 167 165 164 162 155 158 173 173 166 163 162 155 160 149 141 125 145 157 162 165 165 166 158 149 126 109 68 37 81 78 92 95 76 317 59 92 92 85 73 66 71 63
176 181 176 171 166 160 172 168 168 173 171 164 161 169 158 160 158 155 162 168 169 168 169 160 140 128 75 63 47 58 72 102 90 94 298 106 103 93 78 69 74 74 66
179 180 182 176 172 170 172 166 171 173 172 176 175 173 168 163 174 156 157 166 160 164 142 101 80 72 84 76 58 60 84 98 88 46 44 95 108 97 82 79 74 72 66
180 184 182 181 177 179 174 176 179 176 180 185 191 178 163 167 177 171 174 166 171 150 159 134 104 97 86 76 87 81 82 108 94 58 56 86 94 95 96 83 75 69 61
185 189 186 182 183 180 176 181 182 186 184 192 187 181 176 173 184 170 188 167 177 150 157 136 121 112 93 78 61 92 88 113 113 92 68 89 95 96 88 78 70 61 51
210 195 185 188 188 182 183 182 186 187 191 188 194 185 183 182 174 173 176 172 169 161 148 139 136 118 90 83 71 80 103 127 122 116 95 95 105 100 91 76 59 49 37
221 205 198 189 189 188 187 182 182 183 197 186 194 196 186 180 172 169 166 154 158 147 132 111 89 84 76 59 61 76 105 124 143 131 122 102 99 99 101 82 58 60 32
193 205 198 204 189 191 189 187 185 187 189 180 190 201 193 183 166 152 154 152 155 141 128 113 114 83 79 64 58 20 97 124 148 153 139 135 133 113 110 95 70 61 38
215 191 204 197 201 193 193 189 185 186 181 182 182 189 184 169 153 151 152 149 147 134 118 126 83 116 100 49 143 80 85 135 149 143 156 158 159 145 142 104 102 70 36
249 206 195 196 196 204 195 189 174 190 177 179 184 186 171 158 158 154 139 149 144 127 126 127 124 65 107 118 61 50 22 38 140 157 173 167 174 162 148 134 96 8 29
244 262 207 193 201 190 188 181 181 190 196 175 182 169 172 158 164 158 151 153 151 143 150 149 121 113 47 30 93 32 14 14 84 82 126 144 164 147 130 100 30 356 312
238 233 224 204 207 203 194 193 186 185 192 197 158 161 171 163 162 161 157 164 157 133 142 165 139 123 108 36 130 88 109 331 2 21 51 114 100 89 81 43 3 331 303
229 237 235 207 212 202 198 122 83 69 52 66 121 159 161 180 162 163 162 157 160 152 162 171 153 143 145 17 53 137 100 217 11 350 31 48 87 90 59 5 14 8 346
240 226 229 230 207 212 163 180 182 185 170 195 179 169 168 186 179 157 156 154 151 147 164 158 155 149 128 144 66 50 73 132 160 324 332 302 336 70 9 1 344 342 359
259 259 264 279 246 193 192 181 195 198 178 124 139 151 158 165 191 156 149 148 144 140 145 144 144 138 122 135 148 145 75 60 84 126 247 307 327 291 358 341 333 16 9
107 91 357 297 270 232 191 196 194 183 155 145 151 157 157 156 158 159 150 147 145 145 149 142 133 138 134 118 125 122 143 154 175 137 180 272 243 296 307 328 350 32 39